This is the latest recevied weather packets stored in our database for station/object N3WXO-1. If no packets are shown the sender has not sent any weather packets the latest 10 day(s).
| Time | Temp. | Humidity | Pressure | Rain* | Wind** | Luminosity | Snow |
|---|---|---|---|---|---|---|---|
| 1777823125 | 11.11° C | 47% | 1014 hPa | 0 mm | - | 916 W/m² | - |
| 1777822821 | 11.11° C | 46% | 1014 hPa | 0 mm | - | 956 W/m² | - |
| 1777822517 | 10.56° C | 48% | 1014.1 hPa | 0 mm | - | 195 W/m² | - |
| 1777822233 | 10.56° C | 45% | 1014 hPa | 0 mm | - | 218 W/m² | - |
| 1777821930 | 10.56° C | 45% | 1014 hPa | 0 mm | - | 206 W/m² | - |
| 1777821631 | 10.56° C | 46% | 1014.1 hPa | 0 mm | - | 1002 W/m² | - |
| 1777821327 | 10° C | 47% | 1014 hPa | 0 mm | - | 418 W/m² | - |
| 1777821022 | 10° C | 49% | 1014.1 hPa | 0 mm | - | 206 W/m² | - |
| 1777820718 | 9.44° C | 51% | 1014.1 hPa | 0 mm | - | 272 W/m² | - |
| 1777820434 | 9.44° C | 49% | 1014.2 hPa | 0 mm | - | 207 W/m² | - |
| 1777820129 | 9.44° C | 50% | 1014.1 hPa | 0 mm | - | 253 W/m² | - |
| 1777819825 | 9.44° C | 52% | 1014.1 hPa | 0 mm | - | 879 W/m² | - |
| 1777819525 | 8.89° C | 53% | 1014.2 hPa | 0 mm | - | 206 W/m² | - |
| 1777819221 | 8.89° C | 55% | 1014.2 hPa | 0 mm | - | 190 W/m² | - |
| 1777818937 | 8.33° C | 55% | 1014.1 hPa | 0 mm | - | 875 W/m² | - |
| 1777818632 | 8.33° C | 55% | 1014.4 hPa | 0 mm | - | 178 W/m² | - |
| 1777818327 | 8.89° C | 55% | 1014.4 hPa | 0 mm | - | 141 W/m² | - |
| 1777818024 | 8.89° C | 55% | 1014.3 hPa | 0 mm | - | 139 W/m² | - |
| 1777817721 | 8.89° C | 55% | 1014.4 hPa | 0 mm | - | 494 W/m² | - |
| 1777817421 | 8.89° C | 58% | 1014.3 hPa | 0 mm | - | 207 W/m² | - |
| 1777817137 | 8.33° C | 58% | 1014.5 hPa | 0 mm | - | 737 W/m² | - |
| 1777816833 | 8.33° C | 59% | 1014.5 hPa | 0 mm | - | 717 W/m² | - |
| 1777816530 | 7.78° C | 60% | 1014.5 hPa | 0 mm | - | 703 W/m² | - |
| 1777816226 | 7.22° C | 63% | 1014.6 hPa | 0 mm | - | 633 W/m² | - |
| 1777815922 | 7.78° C | 60% | 1014.7 hPa | 0 mm | - | 51 W/m² | - |
* Rain latest hour (hover to see other rain measurements)
** Current wind speed in m/s (hover to see current wind gust speed)